Temperature
20 20 20 20 17 14 16 15 13 12 12 12 12 13 11 10 10 11 11 10 10 10 10 9 9 9 9 8 8 8 7 7 7 6 6 5 5 5 4 4 4 4 4 4 5 5 5 5 5
20 20 20 20 15 16 16 14 12 12 12 11 12 12 11 11 11 11 11 10 10 10 10 9 9 9 9 8 8 8 7 7 6 6 5 5 5 4 4 4 4 3 3 3 4 4 4 5 5
20 20 20 15 16 16 17 14 12 11 12 12 11 11 11 11 12 12 11 10 10 10 9 9 9 9 9 8 8 7 7 6 6 6 5 5 4 4 4 3 3 3 3 3 3 3 4 4 5
20 20 19 15 17 15 14 13 11 10 11 11 12 11 11 11 12 12 11 10 10 10 9 9 9 9 8 8 8 7 7 6 6 6 6 5 4 4 3 3 3 2 2 3 3 3 4 5 5
20 20 15 15 16 14 12 12 11 10 11 11 11 10 11 12 11 11 11 10 10 9 9 9 8 8 8 8 8 7 7 6 6 6 6 5 4 4 4 3 2 2 3 3 3 4 4 4 4
20 17 15 16 16 13 12 12 12 11 11 11 11 11 11 12 11 11 10 10 9 9 9 9 8 8 8 8 7 7 7 6 6 6 6 5 5 4 4 3 3 3 3 3 4 4 4 4 4
20 14 16 17 15 13 12 12 12 11 10 12 13 12 12 12 11 10 9 9 9 9 9 9 8 8 8 8 7 7 7 6 6 6 6 5 5 4 4 4 3 3 4 3 3 3 3 3 3
20 13 14 13 13 14 13 13 13 13 13 13 13 12 13 13 11 10 9 9 9 8 8 8 8 8 8 7 7 7 7 7 6 6 5 5 5 4 4 4 4 4 4 3 3 3 3 3 2
19 14 15 14 12 14 13 12 13 13 13 13 13 13 13 13 12 10 9 9 8 8 8 8 8 8 8 7 7 7 7 6 6 6 5 5 4 4 4 4 4 3 3 3 3 3 2 2 1
18 15 15 14 13 13 12 13 13 12 11 12 12 13 13 13 12 12 12 11 10 10 9 8 8 8 7 7 7 7 6 6 6 5 5 5 4 4 4 3 3 3 3 3 2 2 1 1 0
15 15 15 14 14 14 12 12 13 12 9 13 14 15 13 13 12 12 13 12 12 11 9 9 8 8 7 7 7 7 6 6 6 5 5 5 4 4 4 3 3 3 2 2 1 1 0 -0 -1
13 13 13 13 13 13 13 13 11 12 14 15 15 15 14 14 13 13 13 13 12 11 10 9 8 8 7 7 7 6 6 6 6 6 5 5 4 4 3 3 3 2 2 1 1 -0 -1 -2 -2
13 12 13 12 13 13 12 12 12 13 15 15 14 14 14 14 14 14 13 12 12 11 10 9 8 8 7 7 7 6 6 6 6 5 5 4 4 3 3 2 2 1 1 0 -1 -1 -2 -3 -4
12 12 12 12 13 12 12 12 11 14 15 15 14 14 14 14 14 14 13 13 12 11 10 9 8 8 7 7 7 6 6 6 5 5 5 4 4 3 2 2 1 0 -0 -1 -1 -2 -3 -4 -5
13 12 13 12 12 12 12 11 10 16 15 15 15 14 14 14 14 14 14 14 13 12 11 10 9 8 7 7 6 6 6 5 5 5 4 4 3 2 2 1 0 -0 -1 -2 -2 -3 -4 -4 -5
13 13 14 13 12 11 12 12 12 16 14 14 15 15 14 14 14 14 14 13 13 12 11 10 9 8 8 7 6 6 6 5 5 5 4 4 3 2 1 1 0 -1 -1 -2 -3 -3 -4 -5 -6
13 13 14 13 11 10 10 11 11 14 14 13 15 15 15 15 15 15 14 13 13 12 11 10 9 9 8 7 6 6 5 5 5 4 4 3 3 2 1 1 -0 -1 -2 -2 -3 -4 -4 -5 -6
15 14 13 13 12 9 8 9 12 13 12 13 15 15 15 16 16 16 15 14 13 12 11 10 9 9 8 7 6 5 5 5 5 4 4 3 3 2 1 1 -0 -1 -2 -3 -3 -4 -4 -5 -6
15 14 13 12 12 9 8 10 12 13 11 11 12 14 15 17 17 16 15 14 13 12 11 11 10 9 8 7 7 6 6 6 5 4 4 3 3 2 1 1 -0 -1 -2 -3 -4 -4 -4 -5 -6
14 13 12 12 11 10 9 9 11 11 11 12 12 13 17 18 18 17 16 15 14 13 13 12 11 10 10 9 8 7 6 5 4 4 3 3 3 2 1 1 -0 -1 -2 -2 -4 -4 -5 -5 -6
13 13 13 13 13 11 10 11 11 11 11 11 12 15 17 18 19 19 17 16 15 15 15 14 14 12 11 10 8 6 5 5 4 4 4 3 3 2 1 1 -0 -1 -2 -2 -3 -4 -5 -6 -6
12 13 13 13 12 10 11 11 12 12 11 11 13 15 18 20 20 20 19 18 17 17 16 15 15 14 12 10 9 8 7 7 6 5 4 3 2 2 1 0 -0 -1 -2 -2 -3 -4 -5 -6 -6
13 13 13 12 12 10 9 10 12 11 12 13 14 18 21 21 21 20 20 19 19 18 17 16 15 14 13 12 10 9 8 7 6 4 3 3 2 2 1 0 -0 -1 -2 -3 -3 -4 -5 -6 -7
13 12 10 8 8 10 10 9 11 12 13 14 14 18 20 21 21 21 20 20 19 18 17 17 16 15 14 13 11 10 9 7 6 5 4 3 3 2 1 0 -0 -1 -2 -3 -3 -4 -5 -6 -7
13 12 11 12 11 11 10 9 11 13 12 12 13 17 19 19 20 21 21 20 20 19 18 18 17 16 15 14 13 11 10 8 6 5 4 3 3 2 1 0 -0 -1 -2 -3 -4 -4 -5 -6 -7
12 12 12 13 12 10 10 9 12 13 13 14 15 16 18 20 20 21 21 20 20 19 19 18 17 17 16 15 14 12 11 8 7 5 4 3 3 2 1 0 -1 -1 -2 -3 -4 -4 -5 -6 -7
11 10 11 10 10 9 9 10 11 13 14 14 15 17 19 20 20 20 20 20 20 19 19 18 18 17 16 15 14 13 11 9 8 6 4 3 2 2 1 0 -1 -1 -2 -3 -4 -4 -5 -6 -6
12 10 8 10 11 10 10 10 12 14 15 14 13 16 18 19 20 20 20 20 19 19 18 18 17 17 16 15 14 13 12 10 8 6 4 3 2 2 1 0 -1 -1 -2 -3 -4 -4 -5 -6 -6
10 10 10 8 8 10 9 11 12 13 13 13 13 16 17 18 19 19 18 19 18 18 18 18 17 17 16 15 14 13 12 10 8 6 5 3 2 1 1 0 -1 -1 -2 -3 -4 -4 -5 -5 -6
10 10 9 10 10 7 7 11 13 12 12 12 13 16 17 17 17 17 17 17 17 17 17 17 17 17 16 15 14 13 11 10 8 6 5 3 2 1 1 -0 -1 -1 -2 -3 -3 -4 -4 -5 -6
Wind_Speed
3 3 3 4 6 6 1 3 5 5 4 2 2 4 7 7 6 4 2 6 10 10 8 9 10 9 8 8 8 9 10 11 12 13 14 15 16 17 18 19 20 21 22 23 24 25 26 26 27
2 3 5 5 5 2 4 5 7 6 6 6 4 3 4 4 1 4 5 7 11 12 11 9 11 10 8 8 8 8 9 10 11 12 13 14 15 16 17 18 19 19 20 21 22 23 25 25 26
2 5 5 5 4 4 4 4 6 4 6 5 4 1 3 4 5 7 6 12 12 12 12 9 12 10 9 8 7 7 8 9 10 12 13 13 14 15 15 16 17 18 19 20 21 22 24 25 26
3 5 6 5 2 3 3 2 6 8 4 3 6 3 3 2 6 7 8 14 12 11 11 9 12 10 9 7 7 7 7 8 10 11 11 12 13 14 14 15 16 17 18 19 20 22 23 24 25
5 5 5 3 3 2 3 3 9 8 8 6 6 5 4 2 4 8 10 12 10 11 10 7 12 11 9 7 7 6 7 8 9 10 11 11 12 12 13 14 15 16 17 18 20 21 22 24 24
5 5 3 3 5 2 3 6 8 6 6 5 7 5 5 4 8 10 10 11 14 13 10 6 12 11 9 8 7 6 6 7 8 9 10 10 10 11 12 13 14 15 16 18 19 21 22 22 23
5 5 4 4 3 4 5 7 7 7 6 8 8 6 3 5 8 10 9 11 12 13 11 7 7 9 9 7 7 7 7 7 7 8 9 9 10 11 11 12 13 14 15 17 18 19 20 21 21
6 6 4 3 5 7 6 8 5 9 7 4 9 8 6 7 9 9 7 7 8 10 10 9 9 10 9 7 8 8 7 7 7 7 8 9 9 10 11 12 13 13 15 16 17 18 19 19 20
4 4 4 7 8 6 6 7 4 3 5 3 5 4 0 12 13 10 6 5 6 8 8 11 11 11 11 10 8 8 8 8 8 7 8 9 9 9 10 11 12 13 14 15 16 17 17 17 18
4 4 8 5 7 5 8 8 8 5 4 6 6 3 6 13 16 16 13 13 13 11 8 12 14 14 14 11 10 10 9 9 9 9 9 9 8 8 8 10 11 12 13 14 15 16 16 16 17
2 5 2 1 2 4 8 6 7 9 10 12 11 10 11 13 17 18 17 14 13 11 10 11 15 16 15 13 13 12 11 11 10 10 9 8 7 6 7 9 10 11 12 14 14 15 15 15 15
3 1 2 2 1 5 7 7 6 10 12 8 10 11 13 20 22 22 21 14 12 10 11 10 17 16 17 16 14 14 14 13 12 11 11 9 7 5 5 6 7 9 10 10 11 11 12 12 13
1 1 2 2 2 2 4 5 6 10 12 5 7 12 17 21 21 20 16 13 13 15 15 12 17 17 17 16 15 14 15 15 14 13 12 11 9 6 4 3 4 5 5 6 7 8 10 10 12
2 1 2 1 1 1 3 4 5 13 7 9 10 13 16 20 21 17 15 16 18 18 17 14 15 19 18 16 15 15 17 16 15 15 15 13 10 8 6 3 1 2 3 5 6 8 9 10 12
2 2 4 3 2 0 1 9 11 11 6 9 11 12 14 17 17 21 20 21 21 17 17 16 15 19 18 17 17 16 18 17 16 16 16 15 13 11 9 6 5 6 6 7 8 10 9 9 9
2 4 5 4 5 2 3 12 13 6 10 12 12 12 13 15 16 19 18 17 16 15 15 17 16 16 17 17 17 16 18 18 17 17 17 17 15 13 11 9 8 9 8 8 8 8 4 5 5
3 3 5 6 5 4 6 12 10 3 8 12 12 12 14 14 15 17 17 17 16 17 17 18 16 16 17 18 17 17 17 17 18 18 18 18 17 16 14 12 11 10 9 9 8 5 4 5 6
5 5 6 7 4 6 8 16 19 9 10 13 13 12 13 16 21 17 18 17 15 15 16 17 18 15 14 13 10 9 10 13 16 17 18 19 18 18 16 13 13 11 8 6 6 5 5 5 6
3 5 9 9 5 7 12 19 25 17 11 16 17 15 16 19 16 12 15 15 13 15 17 18 19 16 13 8 7 6 7 6 7 15 19 20 19 19 17 13 12 11 7 6 6 4 5 5 4
5 6 8 8 3 6 9 16 20 15 12 17 18 18 18 16 11 12 13 15 19 19 19 19 21 19 17 14 9 5 5 5 7 13 17 20 20 19 16 15 11 11 7 6 6 5 3 4 3
5 7 7 7 5 4 7 12 10 8 6 8 11 12 12 16 16 13 14 17 18 20 23 21 22 21 19 15 8 4 3 2 5 7 8 17 20 20 18 16 14 12 9 7 7 7 6 5 4
7 7 6 4 4 6 3 8 11 9 9 10 12 12 14 15 14 13 13 15 20 23 19 20 20 20 19 18 16 14 13 12 12 8 9 13 19 19 19 18 16 13 11 7 7 7 6 6 5
7 1 0 2 2 5 3 6 12 8 10 12 12 13 14 14 14 15 16 18 19 17 16 18 18 19 20 20 22 20 17 12 6 6 9 10 12 17 18 18 16 13 11 10 9 6 7 6 6
3 4 4 5 3 5 5 6 9 7 9 10 9 9 11 12 12 14 13 11 12 12 14 16 18 20 20 21 21 22 20 14 10 10 11 10 8 9 15 16 16 14 12 11 10 9 8 8 8
3 4 5 6 3 6 3 5 11 15 11 10 13 13 11 9 10 11 12 13 13 14 16 17 19 21 20 22 23 23 21 18 18 16 14 12 9 9 12 14 13 12 14 14 13 8 9 9 9
4 6 5 4 6 7 4 8 10 14 11 10 11 12 12 12 10 11 12 12 13 14 15 17 20 21 20 22 23 20 18 15 14 15 13 14 12 12 10 14 14 14 14 14 12 8 9 8 10
5 5 4 3 4 5 8 9 12 12 9 7 8 10 12 12 11 11 10 10 11 12 15 18 19 19 20 21 20 19 19 18 16 14 14 11 10 10 12 13 12 13 13 13 10 8 9 8 10
3 6 5 3 4 7 8 7 6 11 12 12 11 12 11 11 11 11 10 10 10 10 10 12 15 18 17 17 18 17 18 19 16 14 15 14 13 11 11 12 11 11 11 11 9 9 9 10 11
5 4 4 3 4 4 6 8 8 10 12 12 14 13 12 13 13 12 11 9 9 9 10 12 14 14 15 17 18 17 17 17 16 16 16 15 13 14 13 13 12 12 11 10 10 10 10 11 12
7 8 8 4 6 6 5 11 11 12 12 11 13 14 13 13 13 12 11 9 8 8 9 11 12 15 16 14 15 17 15 16 17 18 17 15 15 14 14 13 12 12 11 11 11 12 11 11 13
Wind_Direction
60 57 63 55 55 53 129 197 164 155 169 126 109 138 162 173 175 196 121 167 142 140 134 134 133 122 109 94 79 68 61 55 49 45 43 40 38 37 33 32 31 30 28 27 26 25 25 25 23
60 50 54 59 85 49 269 197 184 192 158 133 108 113 136 192 188 138 160 184 153 140 134 136 138 129 118 104 88 74 66 59 53 48 45 41 39 38 34 32 31 29 28 27 26 25 24 23 22
78 50 77 75 109 184 235 193 182 124 143 143 127 130 199 205 192 186 195 166 152 144 143 155 142 136 125 113 98 83 72 65 58 53 47 43 41 39 34 32 30 29 27 26 26 25 24 22 20
80 47 54 76 162 204 243 199 154 133 164 160 151 191 247 229 186 185 157 157 148 150 153 168 149 143 135 125 111 93 80 72 64 58 51 45 42 41 34 32 31 28 27 26 25 24 24 22 19
58 76 61 44 249 254 243 195 158 163 184 181 173 194 239 192 143 141 147 157 153 158 160 173 158 154 146 136 123 107 92 81 71 65 57 48 44 42 35 32 31 29 28 26 25 24 22 21 18
57 70 93 255 260 270 231 171 158 174 174 174 180 194 231 154 148 158 157 164 163 160 162 170 171 163 158 149 140 125 108 95 83 76 66 54 47 43 37 32 32 30 29 27 25 24 22 20 17
113 115 180 217 241 265 211 168 178 176 189 204 184 190 228 192 187 161 158 163 166 164 161 155 140 153 158 156 153 140 125 111 98 89 78 63 53 45 40 32 33 32 31 28 26 23 21 19 15
119 107 122 197 219 249 192 172 197 172 204 176 165 187 232 200 159 143 146 158 170 171 170 164 150 148 147 148 157 150 139 127 114 103 93 77 64 51 40 32 32 33 32 29 26 23 19 17 12
94 92 216 218 205 234 171 178 190 166 143 184 214 216 128 136 136 140 151 177 190 189 186 177 169 167 165 158 155 152 145 138 125 115 107 96 86 66 43 34 34 33 32 28 25 21 18 15 10
87 175 230 208 193 200 179 187 180 159 192 225 237 196 118 141 159 173 183 190 193 195 196 191 183 178 174 167 161 155 149 145 141 137 130 115 99 81 57 42 36 34 33 28 23 19 16 12 6
73 201 224 158 216 175 170 193 183 176 223 216 209 187 154 164 178 190 197 195 196 193 194 192 191 185 181 174 170 169 166 162 161 158 151 137 118 94 72 56 44 39 33 29 20 16 10 3 354
91 21 350 317 207 167 180 180 197 211 226 210 199 164 168 178 190 198 201 198 189 190 199 192 192 189 188 183 181 180 178 177 176 174 169 158 143 124 91 62 43 35 27 19 10 0 351 343 335
100 335 6 1 112 176 168 201 232 243 237 210 158 160 181 190 199 205 205 195 190 198 201 197 192 192 190 187 186 189 189 188 187 183 183 177 164 154 132 87 46 25 9 355 341 331 324 317 312
139 31 320 351 71 132 209 257 246 257 229 197 183 190 196 199 203 202 201 200 200 204 203 197 195 196 191 190 193 193 195 194 191 191 191 188 180 170 163 159 178 295 294 290 292 292 292 289 289
135 357 305 234 193 229 323 285 236 241 167 206 212 211 208 212 208 207 206 206 204 203 201 198 198 196 194 196 198 198 198 196 195 197 196 194 190 184 181 186 212 240 255 262 271 278 278 273 276
44 10 309 263 188 154 172 269 266 234 197 228 227 222 221 222 218 217 212 210 204 199 198 200 201 197 199 199 199 197 198 198 200 200 198 199 198 194 190 197 217 234 242 249 256 262 260 262 268
21 311 280 292 193 165 203 255 272 160 202 240 241 229 227 230 229 223 215 211 204 201 198 199 201 195 198 199 198 197 198 201 203 201 200 202 202 200 198 205 220 229 231 239 250 252 235 259 270
267 262 268 268 219 183 228 255 268 236 218 243 248 242 232 234 234 222 215 210 205 201 200 201 202 199 192 190 188 192 199 206 205 202 202 203 203 203 202 208 220 223 221 231 237 248 247 245 261
225 238 263 264 215 196 242 260 269 267 233 245 247 242 240 241 239 211 207 205 200 200 202 203 202 198 187 182 186 189 205 203 203 207 206 204 204 203 201 205 213 215 213 221 224 235 260 261 251
226 261 271 282 213 212 273 274 270 264 241 237 240 238 236 239 237 213 202 200 203 205 205 205 205 200 197 198 186 176 174 192 203 204 206 206 204 203 203 205 208 212 213 221 223 215 236 258 259
238 227 249 269 314 263 304 295 284 287 250 251 240 237 235 232 237 222 206 206 206 209 208 207 206 203 200 191 171 149 137 147 180 200 205 205 202 202 203 205 208 211 209 218 222 213 219 244 252
260 243 232 274 316 297 347 301 290 286 296 266 248 235 237 234 233 227 210 208 210 214 209 207 204 203 198 189 190 189 197 203 201 194 195 196 199 201 204 207 209 211 213 216 224 220 214 223 251
228 4 141 300 249 299 258 238 286 310 286 273 256 239 236 232 226 227 219 216 216 212 205 205 202 203 199 196 199 202 209 207 179 177 185 193 198 202 204 207 209 212 216 219 222 223 220 220 235
139 62 52 53 73 289 238 196 283 268 248 277 287 269 252 243 232 232 228 217 215 202 200 199 201 206 201 200 203 206 209 196 181 187 192 196 198 203 207 208 209 213 217 221 224 225 227 230 235
98 70 345 335 337 259 197 212 254 260 253 255 276 288 290 274 251 241 231 219 216 205 202 200 202 208 203 202 207 210 210 202 200 197 198 195 198 205 208 207 208 213 219 224 226 224 230 231 235
179 158 183 259 266 288 273 239 256 270 281 269 270 281 291 284 266 252 241 227 221 211 203 200 205 209 203 205 210 211 208 206 208 202 197 199 203 205 197 202 208 213 218 225 224 227 233 233 237
162 205 181 172 280 279 274 287 298 292 315 317 302 297 292 291 287 273 264 244 229 215 208 205 207 209 206 207 208 209 208 208 208 202 200 200 200 198 197 200 205 213 219 223 223 233 235 236 242
176 160 113 156 275 283 288 279 259 293 304 315 318 314 306 306 298 286 272 254 237 224 213 205 209 212 209 206 207 210 210 210 207 200 201 202 200 196 192 199 205 211 217 221 224 235 239 241 248
151 164 168 175 202 227 279 270 238 250 272 290 298 299 297 297 294 286 278 263 239 220 206 205 209 211 210 209 208 211 209 207 205 206 206 203 199 197 200 201 206 212 218 220 226 235 238 244 253
181 193 163 190 245 210 245 271 257 259 275 280 286 292 293 289 287 286 284 278 256 234 217 212 211 214 215 209 208 212 210 205 207 211 208 201 200 199 201 201 207 214 219 220 226 238 244 244 253
Height
1550 1551 1553 1554 1558 1571 1575 1574 1574 1577 1577 1577 1578 1579 1580 1582 1586 1589 1583 1582 1585 1588 1590 1591 1592 1593 1593 1593 1593 1592 1591 1590 1589 1588 1587 1586 1584 1582 1581 1579 1577 1576 1574 1572 1570 1568 1566 1564 1562
1551 1552 1554 1555 1565 1578 1576 1572 1575 1574 1574 1576 1577 1578 1578 1578 1579 1580 1579 1581 1584 1587 1589 1591 1592 1592 1593 1593 1592 1592 1591 1590 1589 1588 1586 1585 1584 1582 1580 1579 1577 1575 1574 1572 1570 1568 1566 1564 1562
1552 1553 1555 1558 1568 1575 1570 1570 1572 1573 1574 1575 1576 1576 1577 1576 1576 1576 1578 1580 1583 1586 1588 1590 1591 1591 1592 1592 1591 1591 1590 1589 1588 1587 1585 1584 1583 1581 1580 1578 1577 1575 1573 1571 1570 1568 1566 1564 1562
1553 1555 1556 1563 1567 1569 1569 1569 1570 1573 1575 1575 1575 1575 1574 1575 1574 1575 1576 1579 1582 1585 1587 1588 1590 1590 1591 1591 1591 1590 1590 1589 1587 1586 1584 1583 1582 1580 1579 1577 1576 1574 1573 1571 1569 1567 1565 1564 1562
1553 1554 1562 1570 1568 1569 1568 1568 1569 1571 1572 1573 1574 1573 1572 1573 1572 1573 1575 1578 1581 1583 1585 1587 1588 1589 1589 1590 1590 1589 1589 1587 1586 1585 1583 1582 1581 1579 1577 1576 1574 1573 1571 1570 1568 1567 1565 1563 1562
1554 1555 1568 1571 1567 1567 1567 1566 1568 1569 1570 1571 1572 1571 1569 1570 1571 1572 1575 1578 1580 1582 1584 1585 1587 1587 1588 1588 1588 1588 1587 1586 1584 1583 1582 1580 1579 1577 1576 1575 1573 1572 1570 1569 1568 1566 1564 1563 1561
1555 1559 1566 1565 1568 1567 1565 1565 1566 1566 1568 1568 1569 1569 1566 1567 1569 1571 1574 1576 1578 1580 1582 1584 1584 1585 1586 1586 1586 1586 1585 1584 1583 1581 1580 1579 1577 1576 1575 1573 1572 1571 1569 1568 1566 1565 1563 1561 1560
1553 1558 1566 1569 1568 1564 1561 1563 1563 1564 1565 1566 1567 1565 1564 1564 1567 1569 1572 1574 1576 1577 1579 1581 1582 1583 1584 1584 1584 1584 1583 1582 1581 1579 1578 1577 1576 1575 1573 1572 1571 1569 1568 1566 1565 1563 1562 1560 1558
1552 1561 1566 1565 1565 1559 1558 1560 1561 1562 1563 1562 1562 1562 1562 1563 1564 1566 1568 1569 1571 1573 1575 1577 1579 1580 1581 1582 1582 1582 1581 1580 1579 1578 1576 1575 1574 1573 1572 1570 1569 1567 1566 1565 1563 1561 1559 1557 1556
1552 1561 1558 1554 1555 1554 1555 1556 1558 1560 1560 1559 1558 1558 1559 1560 1561 1562 1563 1564 1566 1568 1571 1573 1576 1577 1578 1579 1579 1579 1579 1578 1577 1576 1574 1573 1572 1571 1570 1568 1567 1565 1564 1562 1560 1558 1556 1554 1552
1551 1554 1552 1552 1552 1552 1553 1555 1556 1556 1555 1551 1551 1553 1555 1556 1557 1558 1559 1561 1562 1565 1568 1570 1572 1574 1575 1576 1576 1576 1576 1575 1575 1573 1572 1571 1570 1568 1567 1566 1565 1563 1562 1560 1558 1555 1553 1550 1548
1552 1553 1552 1551 1551 1551 1551 1552 1553 1550 1546 1548 1549 1550 1551 1551 1552 1553 1554 1556 1559 1561 1563 1566 1568 1570 1571 1572 1573 1573 1573 1572 1572 1571 1570 1568 1567 1566 1565 1563 1562 1561 1559 1556 1554 1551 1548 1545 1543
1552 1552 1551 1551 1550 1550 1550 1550 1549 1543 1543 1545 1545 1546 1546 1546 1547 1549 1551 1553 1555 1556 1559 1561 1563 1565 1566 1567 1568 1569 1569 1569 1568 1568 1566 1565 1564 1563 1562 1560 1558 1556 1554 1552 1549 1546 1543 1540 1538
1552 1551 1551 1550 1550 1550 1550 1548 1547 1535 1539 1539 1539 1540 1541 1541 1543 1544 1545 1546 1548 1550 1553 1556 1558 1560 1561 1563 1564 1564 1565 1565 1564 1564 1563 1562 1561 1559 1558 1556 1554 1552 1549 1546 1544 1541 1538 1535 1532
1552 1552 1550 1549 1549 1549 1550 1547 1538 1530 1534 1534 1534 1534 1535 1536 1537 1537 1539 1541 1543 1545 1548 1550 1552 1555 1556 1557 1558 1559 1560 1560 1560 1559 1558 1557 1556 1555 1553 1551 1549 1547 1544 1541 1539 1536 1533 1530 1527
1553 1555 1554 1548 1548 1548 1552 1547 1527 1528 1529 1527 1528 1528 1528 1529 1530 1531 1534 1536 1538 1540 1542 1545 1547 1548 1550 1552 1553 1554 1554 1554 1555 1554 1554 1552 1551 1550 1548 1546 1544 1541 1539 1537 1534 1532 1529 1526 1523
1557 1559 1554 1549 1547 1548 1550 1542 1524 1524 1523 1522 1521 1521 1521 1522 1523 1525 1527 1529 1532 1534 1536 1538 1540 1541 1544 1546 1547 1548 1548 1549 1549 1549 1548 1547 1546 1544 1543 1541 1539 1537 1534 1532 1530 1527 1524 1521 1518
1555 1556 1555 1552 1545 1548 1549 1538 1521 1520 1520 1516 1514 1514 1514 1513 1514 1518 1521 1523 1525 1527 1529 1531 1533 1535 1537 1540 1541 1541 1541 1542 1542 1542 1542 1541 1540 1539 1537 1536 1534 1532 1530 1528 1525 1523 1520 1517 1513
1550 1552 1554 1548 1542 1546 1543 1532 1517 1510 1512 1507 1504 1504 1504 1504 1508 1512 1514 1516 1518 1520 1521 1523 1525 1526 1529 1530 1531 1532 1532 1534 1536 1536 1536 1535 1534 1533 1532 1530 1529 1527 1525 1523 1521 1518 1516 1513 1509
1550 1552 1552 1545 1541 1543 1539 1527 1510 1501 1499 1495 1494 1493 1494 1496 1500 1503 1506 1508 1510 1511 1513 1515 1516 1518 1520 1521 1523 1525 1526 1527 1529 1529 1529 1529 1528 1527 1526 1525 1523 1521 1519 1518 1515 1513 1510 1508 1505
1549 1551 1548 1545 1540 1541 1541 1523 1507 1495 1491 1488 1486 1485 1487 1489 1491 1495 1498 1500 1502 1503 1504 1506 1508 1510 1512 1514 1516 1517 1518 1518 1520 1520 1521 1522 1521 1520 1520 1519 1517 1516 1514 1512 1510 1508 1505 1503 1501
1550 1543 1543 1542 1546 1548 1542 1538 1506 1497 1490 1483 1479 1479 1479 1482 1485 1488 1490 1492 1494 1496 1498 1500 1501 1503 1504 1505 1506 1506 1506 1506 1509 1513 1514 1514 1514 1513 1513 1512 1511 1509 1508 1506 1505 1503 1500 1497 1495
1543 1540 1541 1543 1546 1550 1545 1545 1513 1500 1491 1478 1472 1472 1473 1477 1479 1482 1484 1486 1488 1490 1491 1493 1494 1494 1495 1496 1496 1497 1497 1499 1503 1505 1506 1506 1506 1506 1505 1505 1504 1503 1501 1500 1498 1497 1495 1492 1489
1540 1542 1547 1552 1554 1554 1542 1548 1523 1501 1486 1477 1470 1469 1470 1472 1474 1476 1478 1480 1482 1483 1484 1485 1485 1485 1486 1486 1486 1487 1488 1490 1493 1495 1497 1498 1499 1498 1498 1497 1497 1496 1495 1493 1492 1490 1488 1486 1484
1542 1549 1557 1552 1553 1548 1539 1541 1519 1486 1479 1477 1472 1468 1468 1469 1469 1471 1472 1473 1474 1476 1476 1477 1477 1477 1477 1477 1477 1478 1479 1481 1483 1486 1489 1490 1490 1490 1490 1490 1489 1489 1488 1487 1485 1484 1482 1480 1477
1543 1547 1556 1555 1555 1547 1536 1534 1505 1479 1474 1473 1470 1468 1466 1465 1466 1466 1467 1468 1468 1469 1470 1470 1470 1470 1470 1469 1469 1470 1471 1472 1474 1477 1479 1481 1481 1482 1483 1482 1482 1481 1481 1480 1478 1476 1474 1472 1470
1544 1547 1546 1554 1552 1554 1539 1524 1502 1477 1472 1470 1468 1466 1464 1464 1464 1463 1463 1463 1463 1463 1463 1463 1463 1463 1462 1462 1462 1462 1462 1463 1464 1467 1470 1471 1473 1474 1474 1474 1474 1474 1473 1472 1471 1469 1467 1465 1462
1539 1544 1553 1552 1553 1551 1539 1527 1509 1485 1475 1470 1467 1465 1463 1462 1461 1460 1460 1458 1457 1457 1456 1456 1455 1455 1455 1455 1454 1453 1453 1454 1455 1457 1459 1461 1464 1465 1465 1465 1466 1466 1465 1464 1463 1461 1459 1457 1454
1542 1544 1545 1551 1553 1552 1546 1522 1491 1483 1475 1472 1467 1464 1462 1460 1458 1456 1454 1452 1450 1449 1448 1448 1447 1447 1446 1446 1445 1445 1444 1445 1446 1447 1449 1451 1454 1455 1456 1457 1457 1457 1457 1456 1455 1453 1451 1449 1446
1536 1538 1543 1547 1544 1551 1549 1515 1481 1476 1470 1469 1466 1462 1460 1457 1453 1450 1447 1444 1441 1440 1439 1440 1440 1439 1439 1438 1437 1436 1435 1435 1435 1436 1438 1441 1443 1445 1446 1447 1448 1448 1449 1448 1447 1445 1443 1440 1437